GW7325 Weather Reports


Display with metric or nautical units.
time (UTC)temp
F
wind
direction
speed
MPH
gust
MPH
rain 1hr
in
rain 24hr
in
rain mn
in
humidity
%
barometer
mb
20260507075003 50 287 6.0 10.0 0.00 0.37 0.01 83 1007.4
20260507074503 50 295 6.0 10.0 0.00 0.37 0.01 84 1007.4
20260507074003 50 297 6.0 12.0 0.00 0.37 0.01 84 1007.1
20260507073503 50 301 7.0 13.0 0.00 0.37 0.01 84 1006.7
20260507073004 50 299 7.0 14.0 0.00 0.37 0.01 85 1007.1
20260507072503 51 301 8.0 17.0 0.00 0.37 0.01 84 1006.7
20260507072003 51 300 9.0 17.0 0.00 0.37 0.01 84 1006.7
20260507071503 51 298 9.0 16.0 0.00 0.37 0.01 85 1006.7
20260507071003 51 297 8.0 16.0 0.00 0.37 0.01 83 1006.7
20260507070503 51 289 7.0 14.0 0.00 0.37 0.01 84 1006.7
20260507070008 51 287 6.0 13.0 0.00 0.37 0.01 84 1006.7
20260507065503 51 285 6.0 10.0 0.00 0.37 0.01 85 1006.7
20260507065003 51 290 5.0 10.0 0.00 0.37 0.01 86 1006.7
20260507064503 51 286 3.0 10.0 0.00 0.37 0.01 88 1006.7
20260507064003 51 277 3.0 7.0 0.00 0.37 0.01 89 1006.4
20260507063524 52 295 3.0 6.0 0.00 0.37 0.01 90 1006.4
20260507063003 52 308 4.0 6.0 0.00 0.37 0.01 90 1006.0
20260507062525 52 307 3.0 6.0 0.00 0.37 0.01 90 1006.0
20260507062003 52 290 2.0 6.0 0.00 0.37 0.01 90 1006.0
20260507061503 52 293 3.0 7.0 0.00 0.37 0.01 90 1006.4
20260507061003 52 292 4.0 8.0 0.00 0.37 0.01 89 1006.4
20260507060503 52 290 4.0 9.0 0.00 0.37 0.01 89 1006.4
20260507060025 52 293 5.0 9.0 0.00 0.37 0.01 88 1006.4
20260507055524 52 295 5.0 10.0 0.00 0.37 0.01 89 1006.4
20260507055003 52 293 5.0 12.0 0.00 0.37 0.01 89 1006.4
20260507054504 52 291 6.0 12.0 0.00 0.37 0.01 88 1006.7
20260507054003 53 292 4.0 9.0 0.00 0.37 0.01 89 1006.7
20260507053524 53 286 3.0 8.0 0.00 0.37 0.01 90 1006.4
20260507053004 52 289 3.0 7.0 0.00 0.37 0.01 90 1006.7
20260507052524 53 293 3.0 7.0 0.00 0.37 0.01 91 1007.1
20260507052003 53 284 2.0 6.0 0.00 0.37 0.01 91 1007.1
20260507051503 53 270 2.0 6.0 0.00 0.37 0.01 91 1006.7
20260507051003 53 284 2.0 5.0 0.01 0.37 0.01 91 1006.7
20260507050503 53 287 3.0 9.0 0.01 0.37 0.01 90 1006.7
20260507050003 53 284 5.0 10.0 0.01 0.37 0.01 90 1006.7
20260507045503 53 289 5.0 12.0 0.01 0.37 0.01 90 1006.7
20260507045003 53 292 5.0 12.0 0.01 0.37 0.01 91 1006.7
20260507044503 53 290 5.0 10.0 0.01 0.37 0.01 91 1006.4
20260507044003 53 293 5.0 10.0 0.01 0.37 0.01 90 1006.4
20260507043503 54 293 7.0 12.0 0.01 0.37 0.01 90 1006.4
20260507043003 54 289 6.0 12.0 0.01 0.37 0.01 90 1006.4
20260507042503 54 283 6.0 13.0 0.01 0.37 0.01 90 1006.7
20260507042003 54 283 5.0 13.0 0.01 0.37 0.01 91 1006.7
20260507041503 55 286 6.0 12.0 0.01 0.37 0.01 92 1006.7
20260507041003 55 299 7.0 15.0 0.00 0.36 0.00 91 1006.7
20260507040503 56 304 8.0 18.0 0.00 0.36 0.00 91 1006.4
20260507040004 56 301 9.0 18.0 0.00 0.36 0.00 91 1006.4
20260507035503 57 309 10.0 17.0 0.00 0.36 0.36 92 1006.0
20260507035003 57 307 9.0 17.0 0.00 0.36 0.36 93 1006.4
20260507034503 58 288 6.0 13.0 0.00 0.36 0.36 94 1006.0
20260507034003 58 273 4.0 10.0 0.00 0.36 0.36 95 1005.7
20260507033503 58 267 4.0 10.0 0.00 0.36 0.36 96 1005.7
20260507033004 59 264 4.0 11.0 0.00 0.36 0.36 97 1005.7
20260507032503 59 254 3.0 11.0 0.00 0.36 0.36 97 1005.4
20260507032004 59 222 3.0 9.0 0.00 0.36 0.36 97 1005.7
20260507031525 59 227 3.0 9.0 0.00 0.36 0.36 97 1005.4
20260507031003 59 224 3.0 7.0 0.00 0.36 0.36 97 1005.4
20260507030524 59 209 3.0 9.0 0.00 0.36 0.36 97 1005.4
20260507030003 59 202 3.0 9.0 0.00 0.36 0.36 97 1005.4
20260507025504 59 196 3.0 9.0 0.00 0.36 0.36 96 1005.0
20260507025025 59 189 3.0 12.0 0.00 0.36 0.36 96 1005.4
20260507024503 59 194 4.0 12.0 0.00 0.36 0.36 96 1005.4
20260507024003 59 203 3.0 12.0 0.00 0.36 0.36 96 1005.4
20260507023503 59 202 3.0 11.0 0.00 0.36 0.36 96 1005.0
20260507023003 59 201 4.0 11.0 0.00 0.36 0.36 96 1005.4
20260507022503 59 206 3.0 11.0 0.00 0.36 0.36 96 1005.0
20260507022003 59 200 3.0 11.0 0.00 0.36 0.36 96 1005.0
20260507021503 59 197 3.0 11.0 0.00 0.36 0.36 96 1005.0
20260507021003 59 207 3.0 12.0 0.00 0.36 0.36 96 1005.0
20260507020503 59 203 4.0 12.0 0.00 0.36 0.36 96 1005.4
20260507020004 59 195 3.0 11.0 0.00 0.36 0.36 96 1005.4
20260507015503 59 200 3.0 11.0 0.00 0.36 0.36 96 1005.4
20260507015003 59 205 3.0 9.0 0.00 0.36 0.36 96 1005.4
20260507014503 59 204 3.0 11.0 0.00 0.36 0.36 96 1005.4
20260507014003 59 193 3.0 11.0 0.00 0.36 0.36 96 1005.4
20260507013503 59 194 3.0 10.0 0.00 0.36 0.36 96 1005.7
20260507013003 59 195 4.0 12.0 0.00 0.36 0.36 96 1005.7
20260507012503 59 194 4.0 12.0 0.00 0.36 0.36 97 1005.7
20260507012003 59 199 4.0 12.0 0.00 0.36 0.36 97 1005.4
20260507011503 59 198 3.0 12.0 0.00 0.36 0.36 97 1005.7
20260507010503 59 198 4.0 12.0 0.00 0.36 0.36 97 1005.7
20260507010003 59 196 5.0 14.0 0.00 0.36 0.36 97 1005.7
20260507005503 59 201 4.0 14.0 0.00 0.36 0.36 97 1005.7
20260507005003 59 204 4.0 13.0 0.00 0.36 0.36 98 1005.4
20260507004504 59 206 4.0 11.0 0.00 0.36 0.36 98 1005.4
20260507004003 59 194 3.0 9.0 0.00 0.36 0.36 98 1005.4
20260507003525 59 187 4.0 15.0 0.00 0.36 0.36 98 1005.7
20260507003024 59 196 5.0 15.0 0.01 0.36 0.36 98 1005.4
20260507002503 59 196 3.0 15.0 0.03 0.36 0.36 98 1005.7
20260507002003 59 194 3.0 9.0 0.05 0.36 0.36 98 1005.4
20260507001525 59 198 3.0 10.0 0.05 0.36 0.36 98 1005.0
20260507001003 59 202 3.0 11.0 0.06 0.36 0.36 98 1005.4
20260507000504 59 195 3.0 11.0 0.07 0.36 0.36 98 1005.4
20260507000004 59 190 3.0 9.0 0.08 0.36 0.36 98 1005.4
20260506235503 59 192 3.0 9.0 0.09 0.36 0.36 98 1005.4
20260506235003 59 196 3.0 11.0 0.11 0.36 0.36 98 1005.4
20260506234504 59 198 3.0 11.0 0.12 0.36 0.36 98 1005.0
20260506234005 59 201 3.0 10.0 0.13 0.36 0.36 98 1005.4
20260506233503 59 203 3.0 10.0 0.14 0.36 0.36 98 1005.4
20260506233003 59 197 3.0 10.0 0.13 0.35 0.35 98 1005.4
20260506232504 59 187 4.0 12.0 0.12 0.33 0.33 98 1005.4
20260506232003 59 187 4.0 12.0 0.10 0.31 0.31 98 1005.4
20260506231504 59 191 4.0 16.0 0.11 0.31 0.31 98 1005.4
20260506231003 59 189 4.0 16.0 0.11 0.30 0.30 98 1005.7
20260506230504 59 187 4.0 16.0 0.11 0.29 0.29 97 1005.7
20260506230025 59 190 4.0 16.0 0.10 0.28 0.28 97 1005.7
20260506225503 59 191 4.0 14.0 0.09 0.27 0.27 97 1005.7
20260506225003 59 191 3.0 13.0 0.07 0.25 0.25 97 1005.7
20260506224503 59 195 3.0 13.0 0.06 0.24 0.24 97 1005.7
20260506224003 59 189 3.0 13.0 0.05 0.23 0.23 97 1005.7
20260506223503 59 187 3.0 8.0 0.04 0.22 0.22 97 1005.7
20260506223003 59 185 2.0 11.0 0.05 0.22 0.22 97 1005.7
20260506222524 59 190 3.0 11.0 0.04 0.21 0.21 97 1005.7
20260506222004 59 197 4.0 12.0 0.04 0.21 0.21 97 1005.7
20260506221524 59 189 4.0 12.0 0.04 0.20 0.20 97 1006.0
20260506221003 59 183 4.0 12.0 0.03 0.19 0.19 97 1006.0
20260506220524 60 183 3.0 10.0 0.02 0.18 0.19 97 1006.0
20260506220005 60 180 2.0 9.0 0.03 0.18 0.18 97 1006.0
20260506215503 60 175 2.0 8.0 0.04 0.18 0.18 97 1006.0
20260506215003 60 186 2.0 8.0 0.06 0.18 0.18 97 1006.0
20260506214503 60 190 3.0 10.0 0.06 0.18 0.18 96 1006.0
20260506214003 60 186 4.0 10.0 0.07 0.18 0.18 96 1006.0
20260506213503 60 189 4.0 11.0 0.08 0.18 0.18 96 1006.0
20260506213003 60 185 3.0 12.0 0.08 0.17 0.17 96 1006.0
20260506212503 60 188 4.0 13.0 0.09 0.17 0.17 96 1006.4
20260506212003 60 191 4.0 13.0 0.11 0.17 0.17 96 1006.4
20260506211503 60 183 3.0 10.0 0.11 0.16 0.16 96 1006.4
20260506211003 60 180 3.0 10.0 0.11 0.16 0.16 96 1006.4
20260506210524 61 184 3.0 9.0 0.12 0.16 0.16 96 1006.7
20260506210024 61 186 4.0 11.0 0.11 0.15 0.15 96 1006.7
20260506205503 61 192 4.0 12.0 0.11 0.14 0.14 95 1006.7
20260506205024 61 199 3.0 12.0 0.09 0.12 0.12 95 1006.7
20260506204503 61 210 1.0 5.0 0.10 0.12 0.12 95 1006.7
20260506204024 61 198 1.0 7.0 0.09 0.11 0.11 95 1006.7
20260506203504 62 186 2.0 7.0 0.09 0.10 0.10 94 1006.7
20260506203003 62 197 3.0 7.0 0.08 0.09 0.09 93 1006.4
20260506202503 62 190 2.0 12.0 0.07 0.08 0.08 92 1006.7
20260506202003 62 181 2.0 12.0 0.05 0.06 0.06 91 1006.4
20260506201504 62 191 3.0 11.0 0.05 0.05 0.05 91 1006.4
20260506201003 62 191 3.0 11.0 0.05 0.05 0.05 91 1006.7
20260506200503 62 190 3.0 10.0 0.04 0.04 0.04 90 1006.4
20260506200003 63 195 3.0 10.0 0.04 0.04 0.04 89 1006.4
20260506195503 63 195 3.0 15.0 0.03 0.03 0.03 88 1006.4
20260506195003 64 197 4.0 15.0 0.03 0.03 0.03 86 1006.7
20260506194524 64 197 3.0 15.0 0.02 0.02 0.02 84 1006.7
20260506194003 65 191 3.0 9.0 0.02 0.02 0.02 83 1006.4
20260506193524 65 185 3.0 13.0 0.01 0.01 0.01 82 1006.4
20260506193003 66 194 4.0 15.0 0.01 0.01 0.01 80 1006.7
20260506192503 66 204 4.0 15.0 0.01 0.01 0.01 77 1006.7
20260506192024 67 199 3.0 7.0 0.01 0.01 0.01 75 1006.4
20260506191503 67 201 5.0 16.0 0.00 0.00 0.00 74 1006.7
20260506191003 68 202 5.0 16.0 0.00 0.00 0.00 72 1006.7
20260506190524 68 193 5.0 16.0 0.00 0.00 0.00 70 1006.4
20260506190004 69 200 6.0 18.0 0.00 0.00 0.00 69 1006.4
20260506185524 69 210 6.0 18.0 0.00 0.00 0.00 67 1006.4
20260506185003 70 205 6.0 24.0 0.00 0.00 0.00 65 1006.7
20260506184503 70 203 6.0 24.0 0.00 0.00 0.00 64 1006.4
20260506184003 70 202 6.0 22.0 0.00 0.00 0.00 65 1006.4
20260506183503 71 190 5.0 15.0 0.00 0.00 0.00 63 1006.7
20260506183025 71 194 5.0 15.0 0.00 0.00 0.00 62 1006.4
20260506182503 71 196 5.0 11.0 0.00 0.00 0.00 61 1006.4
20260506182003 72 181 5.0 21.0 0.00 0.00 0.00 60 1006.0
20260506181503 72 181 5.0 21.0 0.00 0.00 0.00 60 1006.4
20260506181003 72 188 5.0 17.0 0.00 0.00 0.00 59 1006.7
20260506180504 72 184 5.0 17.0 0.00 0.00 0.00 59 1006.7
20260506180005 72 192 5.0 17.0 0.00 0.00 0.00 59 1006.7
20260506175504 73 198 5.0 15.0 0.00 0.00 0.00 59 1006.7
20260506175004 73 187 5.0 17.0 0.00 0.00 0.00 59 1007.1
20260506174503 73 191 6.0 22.0 0.00 0.00 0.00 59 1006.4
20260506174024 72 195 6.0 23.0 0.00 0.00 0.00 59 1006.7
20260506173503 73 192 7.0 23.0 0.00 0.00 0.00 59 1006.7
20260506173003 73 187 6.0 21.0 0.00 0.00 0.00 58 1006.7
20260506172504 73 182 6.0 15.0 0.00 0.00 0.00 58 1006.7
20260506172003 73 189 6.0 19.0 0.00 0.00 0.00 58 1007.1
20260506171503 74 193 6.0 19.0 0.00 0.00 0.00 57 1006.7
20260506171003 74 184 6.0 18.0 0.00 0.00 0.00 57 1006.7
20260506170524 74 184 6.0 23.0 0.00 0.00 0.00 56 1006.7
20260506170024 73 206 6.0 23.0 0.00 0.00 0.00 57 1007.1
20260506165503 72 204 6.0 21.0 0.00 0.00 0.00 57 1007.1
20260506165005 73 191 6.0 17.0 0.00 0.00 0.00 57 1007.1
20260506164503 72 193 5.0 17.0 0.00 0.00 0.00 58 1007.4
20260506164024 72 187 5.0 14.0 0.00 0.00 0.00 59 1007.1
20260506163525 72 198 5.0 15.0 0.00 0.00 0.00 59 1007.4
20260506163003 72 203 5.0 15.0 0.00 0.00 0.00 59 1007.4
20260506162503 72 190 5.0 14.0 0.00 0.00 0.00 60 1007.7
20260506162003 72 176 5.0 13.0 0.00 0.00 0.00 60 1007.7
20260506161503 72 169 4.0 11.0 0.00 0.00 0.00 61 1007.7
20260506161003 72 184 5.0 15.0 0.00 0.00 0.00 61 1007.7
20260506160503 71 195 5.0 15.0 0.00 0.00 0.00 62 1008.1
20260506160003 71 194 4.0 15.0 0.00 0.00 0.00 62 1008.1
20260506155503 71 194 3.0 15.0 0.00 0.00 0.00 63 1008.4
20260506155003 71 195 3.0 9.0 0.00 0.00 0.00 64 1008.4
20260506154503 71 187 4.0 13.0 0.00 0.00 0.00 64 1008.8
20260506154003 71 185 4.0 13.0 0.00 0.00 0.00 64 1008.8
20260506153524 71 190 4.0 15.0 0.00 0.00 0.00 64 1008.4
20260506153003 71 186 6.0 20.0 0.00 0.00 0.00 64 1008.8
20260506152503 71 190 6.0 20.0 0.00 0.00 0.00 64 1008.8
20260506152003 71 199 4.0 13.0 0.00 0.00 0.00 64 1008.8
20260506151504 71 185 6.0 21.0 0.00 0.00 0.00 64 1008.8
20260506151003 70 186 6.0 21.0 0.00 0.00 0.00 65 1008.8
20260506150503 70 184 5.0 19.0 0.00 0.00 0.00 65 1009.1
20260506150003 70 182 5.0 17.0 0.00 0.00 0.00 65 1009.1
20260506145525 70 189 6.0 17.0 0.00 0.00 0.00 66 1009.1
20260506145004 70 190 5.0 13.0 0.00 0.00 0.00 66 1008.8
20260506144503 70 204 6.0 20.0 0.00 0.00 0.00 66 1008.8
20260506144003 70 206 5.0 20.0 0.00 0.00 0.00 67 1008.8
20260506143503 71 189 5.0 14.0 0.00 0.00 0.00 65 1008.8
20260506143003 70 186 6.0 21.0 0.00 0.00 0.00 66 1008.8
20260506142503 69 194 6.0 21.0 0.00 0.00 0.00 67 1008.8
20260506142003 69 196 6.0 16.0 0.00 0.00 0.00 68 1008.4
20260506141503 69 188 5.0 18.0 0.00 0.00 0.00 68 1008.8
20260506141003 68 194 5.0 18.0 0.00 0.00 0.00 69 1008.8
20260506140504 68 193 5.0 15.0 0.00 0.00 0.00 70 1008.8
20260506140003 68 189 5.0 14.0 0.00 0.00 0.00 71 1008.8
20260506135503 67 188 5.0 15.0 0.00 0.00 0.00 71 1008.8
20260506134503 67 189 4.0 15.0 0.00 0.00 0.00 72 1008.8
20260506134003 67 198 3.0 11.0 0.00 0.00 0.00 72 1009.1
20260506133503 67 197 4.0 15.0 0.00 0.00 0.00 73 1009.4
20260506133024 66 195 4.0 15.0 0.00 0.00 0.00 73 1009.4
20260506132503 66 189 5.0 17.0 0.00 0.00 0.00 73 1009.4
20260506132005 66 188 4.0 17.0 0.00 0.00 0.00 73 1009.1
20260506131503 66 197 4.0 11.0 0.00 0.00 0.00 74 1009.4
20260506131003 66 196 5.0 17.0 0.00 0.00 0.00 74 1009.1
20260506130504 66 195 5.0 17.0 0.00 0.00 0.00 74 1009.4
20260506130003 66 190 5.0 16.0 0.00 0.00 0.00 74 1009.4
20260506125504 66 185 4.0 14.0 0.00 0.00 0.00 74 1009.4
20260506125003 66 193 4.0 15.0 0.00 0.00 0.00 73 1009.1
20260506124503 66 198 5.0 15.0 0.00 0.00 0.00 74 1009.1
20260506124003 65 192 5.0 13.0 0.00 0.00 0.00 75 1009.4
20260506123524 65 188 5.0 13.0 0.00 0.00 0.00 75 1009.4
20260506123003 65 192 5.0 16.0 0.00 0.00 0.00 76 1009.4
20260506122524 65 202 5.0 16.0 0.00 0.00 0.00 75 1009.4
20260506122024 65 206 4.0 13.0 0.00 0.00 0.00 75 1009.4
20260506121524 64 193 4.0 16.0 0.00 0.00 0.00 76 1009.4
20260506121003 64 190 4.0 16.0 0.00 0.00 0.00 77 1009.4
20260506120503 64 190 4.0 13.0 0.00 0.00 0.00 77 1009.4
20260506120003 64 193 4.0 13.0 0.00 0.00 0.00 77 1009.4
20260506115524 63 195 5.0 13.0 0.00 0.00 0.00 77 1009.4
20260506115024 63 187 4.0 13.0 0.00 0.00 0.00 78 1009.4
20260506114503 63 178 5.0 15.0 0.00 0.00 0.00 78 1009.8
20260506114004 63 183 5.0 15.0 0.00 0.00 0.00 78 1009.8
20260506113524 63 196 4.0 13.0 0.00 0.00 0.00 78 1009.8
20260506113025 63 195 5.0 17.0 0.00 0.00 0.00 78 1009.8
20260506112503 63 191 4.0 17.0 0.00 0.00 0.00 78 1009.8
20260506112003 63 184 4.0 12.0 0.00 0.00 0.00 78 1009.8
20260506111524 63 183 4.0 11.0 0.00 0.00 0.00 78 1009.4
20260506111024 62 183 4.0 11.0 0.00 0.00 0.00 78 1009.4
20260506110524 62 189 3.0 11.0 0.00 0.00 0.00 79 1009.8
20260506110024 62 193 4.0 15.0 0.00 0.00 0.00 79 1009.8
20260506105503 62 192 5.0 15.0 0.00 0.00 0.00 79 1009.8
20260506105003 62 187 5.0 15.0 0.00 0.00 0.00 79 1009.4
20260506104503 62 186 4.0 10.0 0.00 0.00 0.00 79 1009.8
20260506104024 62 188 3.0 9.0 0.00 0.00 0.00 79 1009.4
20260506103524 62 189 3.0 9.0 0.00 0.00 0.00 79 1009.8
20260506103003 62 190 4.0 13.0 0.00 0.00 0.00 78 1009.8
20260506102525 62 191 4.0 13.0 0.00 0.00 0.00 78 1009.8
20260506102003 62 189 4.0 11.0 0.00 0.00 0.00 78 1009.8
20260506101524 62 187 4.0 11.0 0.00 0.00 0.00 78 1009.8
20260506101003 62 192 3.0 14.0 0.00 0.00 0.00 78 1009.8
20260506100524 62 189 4.0 14.0 0.00 0.00 0.00 78 1009.4
20260506100024 62 191 4.0 13.0 0.00 0.00 0.00 78 1009.4
20260506095503 62 199 4.0 13.0 0.00 0.00 0.00 77 1009.4
20260506095003 62 197 4.0 16.0 0.00 0.00 0.00 78 1009.4
20260506094504 62 188 4.0 16.0 0.00 0.00 0.00 78 1009.4
20260506094003 62 186 4.0 14.0 0.00 0.00 0.00 77 1009.8
20260506093503 62 193 4.0 14.0 0.00 0.00 0.00 77 1009.4
20260506093003 62 197 4.0 14.0 0.00 0.00 0.00 77 1009.4
20260506092503 62 198 4.0 15.0 0.00 0.00 0.00 77 1009.4
20260506092003 62 199 4.0 15.0 0.00 0.00 0.00 77 1009.4
20260506091524 62 201 4.0 15.0 0.00 0.00 0.00 77 1009.4
20260506091003 62 197 4.0 12.0 0.00 0.00 0.00 77 1009.8
20260506090503 62 192 4.0 16.0 0.00 0.00 0.00 76 1009.8
20260506090024 62 191 4.0 16.0 0.00 0.00 0.00 76 1009.4
20260506085503 62 192 4.0 13.0 0.00 0.00 0.00 76 1009.8
20260506085024 62 189 4.0 19.0 0.00 0.00 0.00 76 1009.4
20260506084503 62 193 4.0 19.0 0.00 0.00 0.00 75 1009.4
20260506084003 62 199 4.0 12.0 0.00 0.00 0.00 75 1009.4
20260506083503 63 195 4.0 14.0 0.00 0.00 0.00 75 1009.4
20260506083003 63 192 5.0 14.0 0.00 0.00 0.00 74 1009.4
20260506082503 63 193 5.0 17.0 0.00 0.00 0.00 74 1009.4
20260506082003 63 197 5.0 17.0 0.00 0.00 0.00 73 1009.4
20260506081503 63 196 5.0 18.0 0.00 0.00 0.00 73 1009.4
20260506081003 63 199 5.0 18.0 0.00 0.00 0.00 73 1009.4
20260506080503 63 200 5.0 17.0 0.00 0.00 0.00 73 1009.4